GFSWCAN_925_rhum_225.txt.gz
RH
88 85 80 85 84 88 96 96 94 91 92 90 89 90 91 91 84 90 86 81 89 100 91 71 63 76 80 85 97 76 83 68 75 92 88 83 85 73 86 70 76 82 80 76 72 72 78 39 48 56 44 44 43 41
89 82 83 84 91 93 97 95 95 94 94 90 88 89 90 88 80 85 88 81 84 98 89 70 69 65 72 68 87 90 79 82 83 92 95 95 87 82 90 89 50 78 62 89 94 71 48 49 60 56 52 52 53 53
84 78 88 88 94 97 96 95 96 95 92 89 89 88 86 84 85 90 89 90 88 98 88 68 59 43 37 42 46 88 81 74 74 88 91 91 93 85 95 87 68 64 79 94 78 59 58 54 43 43 45 49 48 48
77 87 88 89 96 96 92 93 91 91 92 89 86 87 88 87 86 85 88 82 93 91 98 82 47 45 43 42 42 47 51 59 61 82 97 99 93 75 89 71 74 92 80 80 71 47 63 48 53 54 56 53 53 50
83 82 81 92 93 93 95 92 94 92 89 89 90 90 88 85 84 86 76 84 86 92 98 90 62 46 45 45 46 48 49 69 81 89 99 92 66 79 84 77 94 94 95 93 90 81 87 81 65 55 60 58 54 54
82 83 89 91 93 92 92 94 93 92 90 90 87 87 87 86 88 87 86 80 81 78 96 97 66 59 55 41 44 38 41 60 82 92 92 81 61 91 98 94 75 68 66 67 86 69 73 71 63 56 62 63 60 60
84 87 86 85 87 91 93 94 94 90 87 87 84 83 84 83 85 75 90 95 82 74 88 97 90 66 54 50 47 51 40 54 59 80 91 73 89 96 95 96 78 70 69 72 77 91 83 69 88 75 67 73 78 73
86 85 83 83 93 95 94 94 90 87 87 78 66 79 82 70 84 76 72 76 88 71 90 99 94 80 63 74 72 53 56 65 75 66 82 95 83 86 96 78 74 72 78 67 78 77 84 89 82 86 88 90 90 91
83 81 84 85 78 92 95 91 90 91 81 33 46 63 64 59 72 74 90 85 94 88 96 99 98 92 67 72 69 76 74 92 76 95 95 79 88 95 94 93 88 90 93 93 79 63 67 75 83 86 87 86 90 91
83 84 83 77 92 94 92 92 93 86 40 48 54 59 98 85 82 78 80 88 88 93 98 91 96 89 80 88 90 91 92 95 97 93 95 91 93 72 87 91 92 92 92 90 91 87 88 86 88 88 92 91 91 93
81 84 84 86 92 93 93 94 91 56 62 71 97 98 83 72 75 86 93 87 93 91 97 98 95 97 73 97 98 94 97 97 99 92 85 92 94 87 78 79 72 81 89 90 93 89 92 93 93 92 90 90 90 91
86 82 88 86 94 95 87 91 89 87 92 93 94 86 85 80 92 76 96 83 91 91 95 97 96 92 94 92 100 93 99 95 95 87 85 95 88 88 84 83 79 80 92 92 92 93 93 93 93 89 90 91 93 94
82 86 86 94 91 84 87 89 94 91 75 80 76 81 87 86 80 81 95 87 93 94 96 94 92 93 91 95 98 99 98 96 85 91 95 94 83 80 89 84 83 78 82 87 88 90 92 90 90 94 92 94 94 93
86 84 92 88 84 89 93 88 78 67 87 93 95 94 81 99 96 93 94 96 91 96 93 93 97 98 98 96 98 97 86 92 92 95 96 93 94 91 84 83 86 88 86 89 90 92 92 92 91 94 95 96 94 94
83 84 77 84 77 73 82 89 93 74 91 86 84 96 100 90 97 95 96 98 97 97 98 97 96 95 97 98 96 95 86 98 92 93 93 94 94 92 92 91 91 90 91 91 93 93 94 93 92 93 96 96 95 95
80 70 73 72 73 76 77 67 80 76 91 85 95 99 97 98 98 97 100 99 98 98 96 96 100 99 97 97 96 100 97 100 95 96 93 94 93 93 94 93 94 94 94 94 95 95 95 95 95 96 91 96 96 96
75 76 76 74 70 72 70 79 77 95 80 97 99 86 88 97 98 98 99 98 88 97 99 99 98 96 93 95 99 96 98 96 95 93 94 95 92 93 95 95 94 95 95 95 96 95 96 96 92 90 91 96 96 96
80 77 79 76 71 67 77 76 80 95 100 99 99 94 98 97 94 97 96 88 96 100 97 97 97 97 99 100 98 97 97 94 94 94 95 89 80 83 90 96 95 97 96 96 96 94 94 92 90 94 95 91 88 89
85 86 82 76 70 71 84 91 97 99 99 99 98 98 87 91 88 77 74 78 93 95 97 96 97 99 96 98 99 97 98 96 95 95 95 78 78 82 87 89 90 90 94 97 95 93 90 89 92 94 94 89 89 93
88 89 84 77 67 81 92 98 97 90 100 97 97 83 81 94 96 88 86 85 95 98 94 95 96 96 97 98 98 96 97 96 96 95 93 85 81 82 88 91 92 90 90 90 88 89 91 87 92 95 94 94 96 94
92 84 78 72 77 84 95 100 99 100 100 98 97 98 100 96 97 98 99 82 98 98 97 96 98 99 92 95 95 95 95 95 98 92 93 87 82 86 90 92 93 89 91 92 92 90 92 96 98 100 99 100 96 100
89 85 80 82 84 85 91 89 98 95 98 97 98 100 100 84 98 99 97 99 100 95 96 97 97 93 96 96 95 95 90 78 76 79 84 82 86 86 90 94 95 95 96 98 99 97 97 99 98 96 100 94 93 98
84 79 85 83 87 88 83 83 85 96 88 94 99 100 100 100 99 95 100 100 98 93 87 90 92 90 95 94 95 90 80 80 80 83 85 84 84 86 90 92 97 98 96 96 100 100 100 100 100 96 98 91 90 95
72 69 82 76 96 89 94 95 98 98 97 97 100 99 95 100 98 100 100 98 98 93 93 92 93 96 96 96 95 85 82 83 84 84 86 83 89 88 87 90 96 97 99 96 97 99 100 100 99 94 97 100 92 95
70 68 82 85 97 85 94 98 100 98 98 99 98 97 97 100 100 100 100 97 100 100 96 95 95 95 95 96 94 83 82 79 84 89 92 92 89 83 84 85 90 97 99 97 100 100 100 99 97 96 96 100 97 96
88 81 75 89 94 84 92 92 99 95 98 99 98 98 100 100 100 96 94 98 100 99 95 94 95 94 94 94 84 80 79 79 81 88 95 96 94 96 99 100 100 94 100 100 99 98 99 99 99 98 98 100 100 96
99 87 95 84 93 89 94 88 85 95 98 98 98 100 100 98 100 87 97 95 95 95 94 91 91 94 94 84 80 80 79 78 82 80 82 84 87 93 97 100 99 98 100 100 99 100 100 100 100 98 97 98 100 100
95 95 89 91 97 96 94 98 100 100 96 93 93 97 98 90 84 94 89 91 90 91 91 91 92 89 78 78 78 76 74 76 76 74 76 79 82 87 91 95 99 100 100 98 100 98 98 100 100 98 97 96 96 97
98 97 92 100 98 99 96 92 94 95 87 89 94 95 91 92 78 84 86 86 89 94 94 94 94 95 94 94 88 78 74 77 76 84 91 95 83 88 88 89 96 99 99 96 94 100 98 100 100 96 94 96 96 97
98 97 98 100 99 97 93 97 98 95 90 93 93 94 93 87 81 81 84 90 94 93 92 95 96 96 95 92 84 75 74 79 83 83 88 90 88 86 85 92 98 100 100 100 95 94 93 92 91 92 93 92 92 91
100 98 99 100 100 99 99 98 94 97 97 100 99 98 98 97 81 85 84 91 95 97 98 96 96 96 96 95 92 80 75 78 80 84 82 81 86 87 86 93 99 100 100 99 95 94 93 93 93 94 94 94 94 96
99 100 100 100 98 96 98 100 100 100 100 100 100 100 99 98 99 91 94 97 100 100 98 97 96 95 96 96 96 89 80 76 76 79 82 86 93 90 88 97 97 100 96 95 95 94 94 94 95 96 96 96 97 97
100 100 100 100 100 99 99 99 100 99 100 100 100 100 100 100 100 87 95 97 99 96 96 96 96 96 96 96 95 83 75 76 80 85 99 100 100 99 97 96 97 94 95 95 95 94 94 95 96 96 96 96 97 97

GFSWCAN_925_rhum_231.txt.gz
RH
94 92 89 86 89 86 97 96 96 96 93 91 91 87 84 89 93 79 87 88 82 89 84 79 78 80 82 92 94 76 85 84 91 85 90 86 98 91 95 75 78 90 95 96 86 90 92 60 49 70 66 58 56 57
94 88 87 89 81 95 97 95 94 93 94 90 87 85 87 88 89 89 74 80 90 83 83 77 75 76 78 72 85 94 89 91 95 94 95 97 92 97 94 98 70 90 94 95 93 79 45 44 59 50 52 62 65 66
91 87 92 90 90 91 87 93 94 96 92 89 87 86 88 82 80 84 82 85 86 88 85 68 52 52 53 53 60 94 81 87 96 94 97 97 100 92 94 88 91 68 79 97 83 50 52 57 49 49 62 73 70 68
91 91 93 85 86 86 86 90 96 93 92 90 86 86 86 85 83 86 85 88 82 87 99 81 60 53 56 48 49 63 69 76 81 92 98 97 96 76 86 90 88 85 86 80 82 56 71 54 57 74 83 75 73 73
90 96 79 81 88 91 80 89 95 95 92 90 89 88 83 84 86 88 79 82 77 82 100 95 64 48 49 35 36 34 52 69 86 95 100 96 84 84 91 87 95 94 95 95 90 71 93 84 76 72 88 86 89 91
96 81 77 91 97 83 79 93 96 93 91 92 91 81 83 85 88 83 84 92 83 69 97 98 65 65 55 38 36 37 43 55 80 92 93 89 90 96 95 93 82 70 73 86 94 92 82 73 57 66 91 88 89 92
79 83 90 88 84 80 86 92 91 91 94 91 80 71 70 58 79 73 90 92 89 80 94 98 92 60 59 60 47 62 56 63 65 91 94 84 80 92 95 99 80 72 70 70 64 87 77 68 90 80 73 76 74 72
95 96 93 86 79 74 83 88 92 95 74 70 46 77 91 81 82 73 76 87 87 84 87 99 96 80 61 65 72 64 67 75 84 92 92 94 83 87 98 76 77 75 77 64 70 71 72 66 65 70 73 74 79 76
91 92 95 80 72 78 84 94 96 51 32 36 49 72 65 59 73 84 98 88 77 78 97 97 99 97 70 70 77 70 78 96 84 95 96 78 88 98 94 94 88 89 94 93 81 68 63 71 71 74 80 84 88 87
93 93 81 76 75 79 95 93 66 39 35 44 52 49 93 87 86 84 78 76 78 82 97 97 96 95 82 92 91 95 97 99 97 96 91 93 95 88 88 91 92 92 92 92 92 85 86 84 86 86 88 90 91 91
94 83 77 77 83 89 88 87 80 46 51 58 88 94 91 79 68 71 84 82 92 86 98 98 97 93 75 98 96 96 99 98 99 95 92 96 97 84 81 86 86 89 89 91 94 91 93 94 94 93 89 89 90 92
88 79 81 90 88 81 86 93 85 68 74 89 93 92 74 68 87 62 93 88 89 84 96 100 95 97 95 95 98 97 100 93 97 88 88 97 86 85 81 85 90 92 94 93 95 95 94 94 95 94 92 92 94 95
78 91 92 79 66 69 91 89 92 60 80 78 71 78 80 86 66 65 87 86 92 95 97 96 96 98 92 93 98 97 94 100 85 94 96 99 82 80 88 87 86 90 90 90 91 92 93 92 91 95 93 93 95 93
92 92 80 62 58 72 80 80 84 62 64 92 75 54 84 100 97 93 92 94 88 97 98 99 100 100 98 97 100 100 87 89 94 98 98 96 96 92 87 86 91 90 90 92 93 94 92 94 94 94 96 96 96 94
95 89 64 73 68 62 59 53 64 70 79 97 81 74 99 92 98 97 98 99 95 99 98 98 96 97 99 95 98 90 85 99 96 95 94 94 94 94 93 92 92 91 93 94 96 95 94 95 95 93 96 96 97 96
68 61 80 73 63 59 54 66 74 80 81 90 88 100 97 98 98 99 100 100 96 100 97 94 100 95 96 99 93 100 96 99 92 96 94 97 96 95 94 94 96 96 97 96 98 100 97 97 96 96 94 96 97 97
63 69 76 71 61 60 59 75 74 98 95 86 99 85 82 86 100 100 98 98 99 96 100 100 97 98 94 96 97 96 98 96 99 97 95 97 98 96 97 96 97 97 97 98 100 99 96 98 94 92 92 96 95 95
69 79 74 64 54 57 69 79 83 98 100 100 98 98 99 97 98 95 96 96 94 100 98 97 95 96 98 97 94 96 97 96 96 98 97 96 89 89 95 99 97 97 98 98 96 97 93 95 92 95 96 95 90 93
78 78 72 62 55 59 80 94 90 100 100 100 99 99 100 96 95 96 90 89 97 96 98 99 99 97 95 95 96 95 98 97 99 98 95 84 83 86 92 96 96 96 96 93 96 98 92 92 97 99 98 96 95 95
80 78 65 60 51 67 90 98 93 96 100 96 100 99 99 100 96 96 95 93 95 98 100 100 94 94 96 96 97 97 96 96 100 96 95 87 85 84 90 97 98 97 94 94 93 92 93 90 94 100 98 100 99 98
75 74 66 61 69 74 91 100 99 100 100 94 99 100 100 96 100 99 99 92 99 100 100 97 96 96 96 96 95 95 95 90 95 94 96 92 86 85 90 94 94 92 97 98 99 96 95 98 100 96 100 100 97 98
76 75 71 73 79 83 90 97 98 95 100 96 98 100 100 100 100 100 97 100 100 96 98 98 96 95 95 95 94 95 89 82 77 80 87 83 89 92 96 99 100 98 99 100 100 100 100 100 99 93 100 95 94 98
74 70 75 75 77 82 82 86 77 96 79 85 100 92 99 100 99 94 100 100 97 87 92 95 95 95 95 95 95 95 83 82 81 82 82 83 84 86 89 94 98 100 100 98 99 100 100 100 99 97 93 90 90 91
64 64 88 84 93 84 94 97 100 99 97 96 100 86 91 100 98 100 100 98 95 99 97 94 95 96 96 96 96 95 90 80 84 87 87 87 86 84 88 91 93 97 100 97 96 97 99 99 99 95 97 98 93 95
68 56 81 85 99 82 92 93 99 93 91 100 96 91 97 100 100 100 98 92 98 100 95 95 96 96 96 95 95 95 91 76 79 83 88 92 89 85 82 85 90 96 98 95 94 97 98 99 98 97 96 100 98 97
73 80 64 90 95 81 93 81 97 92 99 100 98 99 100 100 100 91 92 93 97 97 93 95 96 98 97 94 95 95 90 78 77 84 86 93 88 90 93 96 95 89 98 100 100 98 97 98 99 97 96 96 100 97
88 86 98 87 92 89 92 92 88 96 96 94 96 100 100 99 99 83 93 86 90 84 88 91 92 94 91 93 94 92 92 91 80 80 81 84 84 88 92 98 98 95 97 99 99 100 100 99 99 98 97 97 99 99
99 96 91 89 97 98 93 99 100 99 94 91 90 96 93 89 78 89 77 76 81 83 87 91 91 91 93 94 88 83 85 94 92 82 79 79 80 87 89 95 100 100 99 99 99 100 99 99 99 97 97 97 98 100
100 99 94 100 100 100 100 95 96 95 90 94 97 97 91 90 71 69 70 73 76 84 89 92 92 94 94 94 90 92 95 96 95 92 90 90 82 82 88 94 98 99 100 97 96 99 100 100 97 95 97 98 98 99
100 98 99 100 100 99 93 94 98 97 93 94 94 95 94 89 78 81 80 82 86 84 86 92 96 96 96 97 96 95 95 94 92 89 83 83 79 83 87 95 96 97 98 97 96 95 93 95 95 95 96 97 95 94
99 98 100 100 100 98 99 99 98 99 100 100 100 100 98 96 81 88 86 90 96 96 96 97 97 96 96 96 96 96 95 92 89 89 86 81 77 82 88 98 100 100 98 98 96 96 96 96 96 95 96 95 94 96
99 100 100 100 97 96 93 100 100 100 100 100 99 100 99 99 100 79 91 90 94 96 98 100 96 95 96 96 96 96 96 95 95 94 89 81 84 87 94 98 99 95 97 97 97 96 97 97 96 96 95 96 96 96
100 100 100 100 100 99 98 99 100 100 100 100 100 100 100 100 98 76 88 93 95 95 95 96 96 96 96 96 95 95 95 95 94 90 100 100 100 99 98 95 97 95 96 96 97 96 97 98 97 96 96 96 96 96

GFSWCAN_925_rhum_234.txt.gz
RH
93 94 93 91 97 94 97 95 96 94 94 90 87 87 89 91 91 73 80 78 77 97 87 77 80 85 84 93 98 78 79 75 92 93 95 86 98 94 96 79 92 95 97 89 81 85 90 51 62 91 72 80 77 82
96 93 90 90 95 97 96 95 95 96 92 90 88 87 90 83 81 84 74 76 84 82 80 80 73 71 82 77 92 95 85 94 95 96 95 98 92 98 95 100 78 93 94 95 95 76 47 52 57 54 59 91 84 89
97 91 91 95 96 95 93 92 96 94 93 90 88 86 86 85 83 87 85 90 82 91 79 63 59 55 59 58 67 91 81 88 98 93 99 98 100 92 96 91 93 70 82 98 83 50 53 54 47 50 70 76 79 86
94 90 96 95 97 87 81 92 95 95 93 90 88 88 87 84 87 89 81 87 76 88 97 79 61 56 56 44 47 58 69 80 85 93 100 99 96 76 94 91 92 90 88 84 79 58 67 52 56 76 83 78 78 80
93 94 96 96 93 86 80 90 95 96 92 91 92 87 83 87 90 80 80 80 70 78 95 93 67 54 54 54 40 37 50 77 89 98 100 99 84 92 92 84 97 95 96 96 93 69 91 83 72 75 89 82 81 88
93 96 95 95 92 84 80 89 94 91 94 95 84 80 80 85 88 80 83 91 88 73 96 98 67 62 53 44 38 36 51 64 81 94 94 94 92 93 97 96 91 71 73 92 94 92 86 76 59 64 87 86 90 88
95 88 93 95 82 82 83 83 89 95 96 82 72 71 62 74 76 70 91 92 85 90 94 96 92 59 59 58 44 61 59 66 67 91 96 91 85 92 96 100 78 75 73 72 75 93 76 66 86 80 89 84 76 72
95 95 95 89 82 73 76 86 96 89 77 37 53 95 93 72 75 71 93 81 79 78 81 98 95 79 63 65 74 70 70 79 90 99 91 94 89 90 100 80 79 77 79 66 72 74 77 68 66 69 73 76 81 75
95 95 95 87 74 74 89 95 69 71 39 42 86 86 70 58 76 94 100 97 82 72 100 98 100 100 72 72 79 72 74 95 81 98 97 79 92 100 96 94 88 90 94 93 83 68 63 70 70 74 78 82 87 85
93 95 95 76 73 89 77 79 66 37 41 50 57 50 92 90 84 88 77 70 76 83 95 97 96 94 85 91 92 95 96 99 100 98 90 94 97 90 86 84 92 93 93 92 92 84 86 83 84 86 87 91 92 90
96 94 84 80 85 73 75 77 41 31 41 50 82 96 91 76 67 64 83 79 89 91 98 98 99 100 77 98 97 95 100 98 96 97 94 98 98 84 76 80 81 87 91 93 95 93 94 94 94 93 89 91 92 92
93 91 92 90 70 69 77 81 62 41 67 87 88 86 64 61 84 58 91 88 88 83 96 100 96 98 97 98 98 97 100 93 98 88 90 99 90 81 84 86 85 90 94 93 95 95 95 95 95 94 94 93 94 95
94 96 92 64 59 80 69 80 88 61 81 75 65 69 77 84 60 52 70 78 93 98 98 97 98 99 93 93 98 97 92 98 84 95 100 99 84 84 90 87 85 84 91 91 92 92 94 94 94 96 94 94 95 94
95 91 66 58 60 58 50 47 58 59 60 89 67 50 82 100 92 92 92 94 90 99 100 99 100 99 98 95 100 98 89 89 93 98 100 98 98 94 88 85 90 90 92 93 94 95 94 95 94 95 97 97 96 95
95 74 70 77 58 53 48 53 64 67 70 95 80 80 98 94 98 98 98 98 96 98 98 98 96 98 99 95 98 89 85 98 96 97 100 97 97 96 94 92 93 92 94 94 97 97 96 97 96 95 97 97 98 96
88 58 89 72 56 52 50 63 66 73 76 90 94 91 99 97 99 99 100 100 98 100 97 95 100 94 96 99 91 100 98 98 90 99 98 99 97 96 96 96 96 97 97 98 99 100 99 100 100 99 94 96 98 99
54 75 82 62 55 52 52 65 70 96 95 93 100 91 82 85 100 100 98 99 100 96 99 100 96 97 94 94 95 94 98 93 98 99 99 98 100 99 98 98 98 99 98 99 98 99 97 99 94 94 94 98 95 98
70 81 65 52 46 51 60 75 83 99 100 100 97 100 95 98 100 98 98 97 96 98 98 99 95 95 98 97 94 96 98 98 98 99 98 96 89 89 94 99 98 98 99 94 94 99 93 97 93 97 98 99 93 96
78 71 57 48 45 53 76 90 85 100 100 100 100 99 99 98 95 98 97 95 96 96 96 99 100 98 95 95 97 96 99 99 100 98 94 86 86 87 90 94 96 96 95 92 94 100 93 94 98 100 100 99 97 97
72 61 57 51 45 56 85 95 89 96 97 96 100 100 99 99 97 96 96 95 94 97 100 100 97 95 96 96 97 96 97 97 100 96 95 87 89 84 90 96 99 94 94 93 93 94 94 92 96 99 100 100 100 100
66 68 60 50 60 64 92 100 100 100 100 95 100 100 100 96 100 100 99 93 99 100 100 97 96 96 95 96 96 95 96 92 93 92 94 97 88 86 90 91 91 91 96 100 100 97 97 100 100 96 99 100 98 99
74 66 63 65 75 79 91 98 97 97 100 100 96 100 100 100 100 100 98 100 100 96 97 99 97 95 96 95 94 94 93 84 79 79 87 84 88 91 94 98 97 97 96 100 100 100 100 100 99 95 98 98 93 95
67 61 64 66 70 78 78 85 76 96 75 83 99 88 98 100 100 94 100 100 97 82 87 95 95 96 96 95 95 95 90 80 81 82 83 84 85 86 89 92 97 100 99 95 97 100 100 100 100 98 96 94 92 91
58 60 84 88 88 76 95 98 99 99 96 97 98 79 88 100 98 100 100 98 94 95 100 94 96 97 97 96 96 94 94 85 79 83 86 88 87 84 85 88 94 98 100 98 97 97 98 98 99 95 95 98 96 95
67 59 80 82 99 84 90 92 97 91 88 100 94 89 96 100 100 100 97 92 97 99 94 95 95 98 100 95 95 96 94 87 77 80 78 89 89 86 83 84 87 94 98 96 97 98 98 98 98 98 96 100 100 97
76 78 60 87 93 79 92 78 93 89 99 99 98 99 100 100 100 90 91 93 97 96 91 93 94 96 96 92 95 95 94 92 82 80 78 88 90 88 89 93 94 87 99 100 100 100 98 99 99 98 97 96 100 98
86 89 97 88 93 89 91 92 88 97 98 98 96 100 100 98 99 82 91 74 85 79 82 85 86 88 91 91 93 94 93 94 95 90 84 79 83 85 88 91 93 94 99 100 100 100 100 99 100 99 98 98 98 99
100 98 87 90 97 98 93 100 100 100 97 92 89 94 95 88 79 87 73 71 75 76 81 87 93 92 92 93 96 94 90 89 95 96 92 83 78 80 85 88 94 99 100 100 100 100 99 98 99 98 98 97 95 96
100 99 94 100 100 100 100 95 96 95 92 94 96 97 93 90 69 66 67 68 71 77 84 88 90 93 95 96 95 93 92 96 97 97 96 92 80 78 83 88 96 100 100 95 96 99 100 100 99 98 97 95 95 96
100 98 100 100 100 98 93 94 98 97 95 95 95 96 94 90 80 80 82 84 85 86 89 93 95 96 96 97 95 96 96 96 97 96 94 85 80 82 85 91 96 97 98 96 95 95 94 94 95 96 96 96 96 96
100 99 100 100 100 98 98 99 98 99 99 100 100 100 99 97 80 84 86 86 88 95 96 95 97 98 97 96 96 96 95 96 95 95 94 90 87 77 84 94 99 96 96 96 96 96 96 95 96 97 97 97 96 97
100 100 100 99 98 96 94 100 100 100 100 100 99 100 99 99 100 75 86 87 88 91 97 100 96 95 97 97 96 96 97 95 96 96 95 94 86 85 87 96 96 95 95 96 97 98 97 96 97 98 97 97 97 97
100 100 100 100 100 99 98 99 100 100 100 100 100 100 100 100 98 74 80 88 92 92 93 94 95 96 96 96 96 96 96 95 96 96 100 100 100 99 98 95 96 94 96 97 98 98 98 97 97 98 98 97 97 97

GFSWCAN_925_rhum_240.txt.gz
RH
95 94 87 80 90 96 93 91 95 90 92 91 92 86 86 90 80 66 83 84 73 80 69 72 76 72 71 69 64 52 47 42 53 53 53 49 55 56 65 64 77 77 75 57 53 62 71 54 52 75 84 67 65 77
98 98 95 87 92 94 96 90 91 90 93 92 89 89 87 86 83 65 82 88 84 73 66 82 78 72 80 73 70 77 62 68 61 52 58 68 51 61 72 56 60 76 80 82 82 57 41 44 50 54 54 83 68 77
98 96 94 92 97 96 95 96 88 94 93 91 90 90 87 87 85 71 75 76 75 72 55 53 59 66 63 66 74 56 52 59 79 83 72 78 86 64 59 67 76 53 63 69 67 40 46 45 43 44 52 62 62 61
99 95 90 94 97 94 94 93 91 96 92 93 93 87 87 93 71 66 74 74 77 77 72 60 64 66 62 54 53 50 56 83 83 80 80 86 80 67 73 74 70 66 64 65 56 41 53 40 46 53 62 59 60 65
96 94 90 99 95 93 93 80 91 84 94 95 81 70 87 96 69 64 70 78 75 72 66 57 61 55 53 50 46 51 57 65 67 77 85 79 72 83 71 66 72 79 87 81 69 56 83 69 56 61 77 72 71 76
94 90 96 95 89 96 92 92 80 93 93 70 43 60 90 95 71 70 80 87 83 80 75 69 61 56 58 50 45 55 56 59 60 68 80 74 68 78 84 76 78 60 82 89 86 78 71 61 52 61 76 72 78 89
92 97 94 92 98 94 92 79 94 83 62 41 89 90 94 91 82 85 91 96 81 76 81 72 70 55 62 55 44 53 57 65 61 72 58 48 54 71 76 81 64 62 65 76 81 85 66 57 79 75 80 83 82 71
98 93 96 98 96 88 78 94 76 55 38 91 97 88 78 65 72 81 88 82 77 72 73 80 70 57 60 46 61 58 56 61 68 72 57 60 59 62 86 67 66 65 66 58 74 79 83 81 75 79 77 74 71 67
88 97 100 97 91 90 94 72 53 34 47 94 95 80 62 57 82 95 90 90 63 62 90 84 85 78 59 55 61 59 62 76 67 77 68 57 64 84 82 87 77 77 86 87 73 65 67 74 75 70 70 73 79 75
99 99 96 94 94 87 75 49 35 40 95 96 86 65 87 94 86 92 71 59 71 87 87 88 85 78 64 67 76 79 84 88 89 86 74 73 80 80 69 75 81 84 86 86 87 80 82 78 78 77 78 81 87 87
93 96 95 94 75 65 50 34 32 48 56 52 60 83 86 65 63 61 75 76 81 84 90 94 92 85 67 85 83 87 91 88 91 84 83 83 81 71 68 72 75 82 87 89 91 89 92 92 93 91 83 84 86 89
96 95 93 78 64 54 45 32 32 42 48 50 59 61 41 52 72 55 78 77 80 88 89 92 85 79 80 85 91 90 93 86 92 75 76 82 77 71 74 76 81 86 88 89 93 94 94 92 93 92 89 91 94 96
95 93 88 83 52 43 39 32 33 40 52 51 40 60 71 72 56 46 50 68 80 90 90 89 87 87 82 84 93 90 87 90 73 84 84 80 74 74 82 79 78 83 88 88 88 91 89 88 89 92 92 94 97 97
94 92 76 49 44 38 42 44 50 56 43 76 61 55 75 71 82 77 78 87 84 91 90 87 89 87 87 86 91 90 86 80 81 86 86 80 86 87 80 83 84 85 89 90 93 94 92 94 95 94 100 100 100 99
91 74 57 46 38 39 44 46 51 45 47 80 74 79 88 89 92 92 91 92 91 90 89 90 89 85 89 90 88 86 78 86 81 81 78 85 92 92 91 89 91 91 94 94 97 98 99 100 99 97 93 100 100 100
72 51 64 46 40 43 48 45 42 52 77 86 91 85 93 93 95 95 96 95 94 90 87 85 90 86 94 95 87 92 87 87 80 85 84 88 94 92 94 97 98 99 100 100 100 100 99 100 100 99 96 98 94 100
39 81 85 46 40 42 47 43 45 87 91 86 100 91 89 90 92 94 91 92 100 92 92 94 88 90 92 90 89 82 88 83 86 85 87 92 96 95 96 98 97 99 97 95 96 95 96 96 96 96 99 97 95 97
76 86 51 43 39 35 39 52 72 88 100 100 89 95 92 92 93 89 90 97 94 93 94 92 90 94 92 92 86 85 87 87 86 87 88 94 94 91 93 97 95 95 94 91 93 98 94 98 91 95 99 99 92 94
59 50 45 41 35 31 55 74 67 99 100 98 94 93 91 92 95 98 96 98 98 98 90 95 96 92 83 80 87 89 89 88 87 86 91 88 92 90 90 91 94 95 95 95 98 95 92 95 95 96 95 93 90 92
50 48 41 36 30 37 74 87 86 88 91 94 94 98 91 93 94 93 92 90 88 93 98 99 87 78 81 88 90 89 90 95 88 79 78 84 90 86 92 95 93 93 90 91 92 94 90 87 92 96 98 99 96 97
47 49 40 32 40 47 90 100 94 100 96 91 95 91 93 92 96 96 95 89 95 98 99 86 84 81 87 97 95 96 97 97 85 76 75 80 87 85 90 94 93 89 92 94 93 92 92 95 98 99 100 100 100 100
56 48 41 44 60 67 87 98 94 94 92 96 89 96 100 95 99 97 95 98 100 86 86 84 88 94 95 95 95 95 95 96 94 84 82 86 80 83 86 95 97 97 99 100 100 99 98 100 98 100 100 100 97 96
50 43 43 43 66 70 74 87 78 93 73 77 93 80 92 100 98 94 100 94 88 81 80 83 86 94 96 94 96 95 95 96 92 85 83 84 84 86 88 90 95 99 98 98 100 100 100 100 100 100 96 95 95 95
46 53 84 87 83 83 94 93 93 90 89 88 86 70 85 97 93 98 92 87 82 88 94 91 93 96 95 99 99 91 93 96 96 93 85 85 90 86 85 86 90 96 100 100 100 100 100 100 100 99 96 97 99 98
63 66 76 78 96 79 88 86 90 81 84 100 91 86 94 97 95 99 89 82 83 87 89 91 94 97 94 92 90 88 91 95 98 96 92 83 85 87 84 84 87 93 97 96 100 100 98 98 99 100 97 100 100 95
81 89 65 93 93 74 88 72 85 86 97 97 97 95 97 96 95 85 80 80 82 83 80 83 86 90 91 90 93 91 90 92 97 96 93 91 91 92 88 91 91 92 98 100 100 100 99 98 99 99 98 97 100 95
87 94 98 93 88 85 90 90 84 92 99 91 92 98 94 94 93 74 76 66 73 70 70 73 75 80 83 87 92 95 96 96 97 96 95 96 96 96 92 88 88 90 97 100 100 100 100 100 100 100 99 98 99 98
93 96 83 96 96 94 91 99 100 100 91 86 87 92 88 84 74 77 64 66 68 69 69 72 77 84 89 94 96 96 96 96 96 95 93 95 95 96 84 83 86 91 100 100 100 100 99 100 99 99 99 96 96 96
99 97 90 100 100 100 100 90 90 89 84 88 90 94 89 83 66 62 64 67 71 75 78 79 81 87 90 95 97 97 96 96 97 96 94 92 94 85 81 82 85 93 95 95 95 98 100 100 100 97 96 96 96 95
100 99 100 100 99 97 94 94 96 97 96 95 95 94 92 88 77 76 81 83 83 84 87 91 93 94 95 98 97 96 95 96 96 97 96 95 94 90 87 84 90 96 96 96 94 94 92 94 94 95 95 95 94 94
98 99 99 100 100 98 99 100 97 99 100 100 100 100 97 94 80 78 80 84 85 84 85 88 92 94 95 96 97 97 96 96 96 96 96 96 96 95 95 91 95 97 97 97 96 95 96 95 95 95 96 95 94 94
98 100 100 94 96 98 95 100 100 100 100 100 98 100 98 99 99 76 79 84 85 84 88 93 92 93 94 96 96 98 100 97 96 96 96 95 95 95 94 94 97 96 97 98 97 96 98 98 96 96 96 96 96 96
100 100 100 100 100 98 99 98 100 100 99 100 100 100 99 99 96 74 71 78 87 90 88 89 93 95 96 96 96 98 96 96 96 99 100 100 100 100 99 96 97 97 97 96 96 98 99 99 98 98 97 98 98 96

GFSWCAN_925_rhum_243.txt.gz
RH
100 97 97 94 90 95 91 93 92 78 85 92 89 88 87 89 64 66 87 91 67 61 57 58 60 52 48 44 42 38 46 33 40 46 42 38 43 46 51 45 59 63 64 45 46 49 70 39 45 76 84 56 55 62
97 97 97 91 91 91 88 96 86 79 88 88 89 89 85 90 74 56 64 80 82 63 61 76 68 70 77 72 63 47 48 46 44 54 48 44 51 36 42 60 47 81 74 80 70 53 36 33 43 49 44 67 61 61
98 98 97 94 90 91 93 96 91 87 88 90 92 89 87 86 64 45 81 70 76 53 51 47 55 58 60 61 69 58 36 42 45 66 61 59 62 43 59 71 62 50 49 62 61 35 39 40 40 40 47 56 55 56
98 98 94 92 95 91 95 95 95 92 88 94 93 86 95 76 55 47 82 80 79 60 65 57 63 58 58 55 57 46 42 51 60 54 64 62 58 51 72 65 62 63 51 60 50 35 50 37 45 51 53 54 59 62
98 97 88 93 95 96 97 96 96 88 94 87 65 62 99 67 54 46 85 92 88 71 54 49 52 55 51 46 40 49 48 50 48 62 69 67 55 66 57 54 72 69 82 77 70 56 85 68 54 48 68 68 69 76
98 92 84 97 99 97 96 96 91 95 84 52 42 69 99 82 63 70 65 90 90 89 65 71 50 49 45 40 44 48 54 48 46 58 61 57 54 69 78 71 71 52 66 86 87 77 72 56 46 58 72 72 78 90
96 83 96 99 95 97 97 91 96 79 50 71 79 95 98 83 81 74 84 93 74 77 74 69 61 46 46 38 40 43 49 55 51 54 49 41 45 64 68 75 58 54 54 60 66 80 70 57 80 74 83 82 84 79
93 92 96 97 96 96 93 94 78 52 71 96 95 86 80 70 80 75 87 65 67 62 64 67 62 46 48 38 52 45 48 50 57 49 44 51 52 54 77 63 59 58 60 53 63 72 74 75 70 75 79 79 77 73
90 93 97 96 96 93 95 80 47 40 94 91 93 67 61 73 67 83 83 71 54 71 77 69 72 70 51 45 48 50 52 78 62 69 59 54 56 77 80 82 73 72 85 85 68 58 57 64 64 71 76 75 80 77
90 96 95 96 94 96 87 48 32 73 98 89 84 71 86 95 83 80 59 57 70 80 80 77 67 72 56 53 63 72 74 79 88 78 65 69 74 68 59 64 72 79 81 81 87 79 82 77 76 80 85 87 88 90
99 95 97 95 96 79 45 35 89 89 94 71 77 82 80 69 68 69 75 72 78 78 80 86 83 78 59 75 73 81 82 78 85 81 82 74 72 63 57 63 66 73 80 84 87 87 88 90 92 91 83 81 86 90
96 93 96 95 81 55 32 45 56 45 47 43 59 52 36 60 72 57 76 72 73 83 79 82 74 66 66 74 81 83 85 81 84 67 80 72 70 62 65 69 72 76 81 86 90 94 93 89 91 89 87 90 95 96
90 96 95 88 70 40 30 33 43 38 40 35 40 60 71 66 64 45 51 66 68 77 80 79 78 76 73 76 86 86 84 82 66 79 70 68 64 67 76 72 74 73 77 82 84 88 86 85 85 91 92 96 99 97
95 95 92 61 42 39 40 42 41 39 30 74 64 59 74 64 71 65 66 76 78 78 79 76 78 79 76 80 81 87 79 80 77 78 74 66 80 81 76 77 80 81 83 86 92 93 90 92 94 93 98 100 100 99
96 93 56 51 57 76 55 45 44 32 46 77 73 74 80 82 85 86 87 82 82 81 80 79 81 75 81 86 81 84 82 79 74 76 70 76 86 89 88 86 91 90 93 95 97 99 99 100 100 99 93 98 100 100
67 44 74 88 62 42 40 37 32 42 72 78 78 79 80 85 89 88 87 83 87 81 81 81 84 85 84 88 87 83 84 82 79 80 78 78 84 89 91 95 97 99 99 100 100 99 98 100 100 100 94 98 97 98
34 78 89 57 38 38 37 32 39 76 82 74 90 77 81 82 87 86 81 82 93 86 85 87 89 86 86 88 82 73 83 84 84 79 77 84 91 92 94 94 94 97 100 95 96 94 100 96 94 93 95 96 92 91
81 81 42 36 31 27 34 43 62 79 86 92 83 86 79 80 80 76 78 87 85 84 85 90 86 88 84 85 80 76 78 81 80 79 80 87 96 95 95 99 95 95 98 97 98 98 94 93 86 89 92 89 83 83
58 54 47 37 32 28 53 67 67 87 94 88 86 83 79 81 83 87 85 91 94 90 85 89 91 85 75 73 81 80 84 84 85 79 83 87 88 90 90 96 92 87 89 91 94 92 86 87 91 89 90 88 85 83
40 40 37 31 25 35 74 86 75 81 85 87 84 85 82 85 86 82 79 76 76 84 92 93 79 69 75 81 84 84 86 90 87 75 69 76 83 84 82 90 86 87 81 79 82 85 83 81 84 89 92 90 90 90
36 40 31 24 32 41 82 92 88 93 89 86 88 82 87 86 88 90 89 81 89 91 88 76 74 72 83 92 98 97 94 95 85 76 69 69 77 78 80 86 91 81 82 82 84 83 85 88 90 93 95 92 96 95
47 38 32 36 48 59 87 95 90 92 86 92 83 84 88 89 90 91 90 93 89 78 77 74 75 82 86 93 92 98 96 97 95 92 87 85 76 75 77 84 90 93 93 93 94 93 92 94 96 96 98 98 99 96
38 34 34 37 69 71 82 90 80 83 75 82 88 83 87 90 90 91 95 84 80 81 82 81 85 83 93 94 97 98 100 97 89 87 84 86 82 84 88 89 90 98 92 92 99 98 98 99 99 99 100 100 99 96
36 48 78 80 78 87 88 86 82 80 79 78 76 71 81 88 88 90 83 75 75 88 87 88 91 85 88 97 90 83 87 98 95 95 95 92 90 83 85 85 87 95 98 100 100 100 100 100 100 100 100 100 99 98
62 70 76 81 90 78 78 75 77 72 80 86 80 82 89 91 87 85 76 74 76 78 80 89 92 88 84 80 80 82 87 95 95 91 94 95 93 88 87 84 85 87 91 100 100 100 100 100 100 100 100 100 98 96
77 89 74 77 83 71 75 74 80 84 83 87 84 87 89 89 90 82 72 73 77 80 81 85 83 81 80 83 81 82 87 94 97 98 96 95 95 98 95 88 88 90 91 96 100 100 100 100 100 100 100 100 100 95
87 93 90 85 70 74 77 77 73 78 89 87 83 89 89 91 84 70 66 66 75 71 67 68 73 81 81 85 86 90 95 97 97 97 95 95 96 96 96 97 92 89 91 96 100 100 100 100 100 100 100 98 97 96
87 87 83 88 84 81 87 86 88 90 80 76 78 92 88 78 70 69 71 63 64 67 68 70 74 79 84 89 92 95 97 97 96 96 95 94 96 96 96 91 83 85 100 99 100 100 100 98 100 100 99 97 96 96
93 84 79 100 98 90 88 81 81 75 71 75 83 82 80 71 69 68 66 67 71 74 80 83 84 84 86 90 93 95 97 98 100 95 93 89 97 95 90 85 84 87 94 94 95 99 100 100 100 99 96 95 95 94
100 91 92 100 94 92 88 87 88 91 91 88 90 85 84 84 76 74 78 81 84 87 87 87 88 90 93 95 94 93 94 96 97 99 95 95 97 95 94 91 87 93 96 95 94 92 94 96 97 96 96 95 95 95
91 92 92 90 93 92 93 99 98 96 98 95 100 96 90 88 79 74 77 82 85 85 84 85 86 89 92 94 94 95 96 96 96 96 96 96 96 96 95 95 93 96 97 97 97 95 94 95 96 96 96 96 96 95
92 98 93 93 93 94 98 94 95 96 95 96 92 98 91 92 92 78 73 80 83 84 89 90 86 91 93 94 95 95 100 97 96 95 96 96 96 96 96 94 96 97 97 98 98 96 95 95 97 98 96 96 96 95
98 97 100 95 95 94 94 95 91 94 95 95 92 93 92 91 91 74 66 71 80 84 83 84 88 91 94 94 94 94 95 95 95 97 100 100 100 99 98 96 95 97 97 97 98 96 96 96 97 98 98 97 96 95

GFSWCAN_925_rhum_249.txt.gz
RH
100 100 99 98 99 98 96 85 92 85 72 66 61 42 26 22 20 19 65 56 50 95 85 70 75 85 80 87 90 65 61 64 71 84 84 86 83 82 78 72 80 95 98 94 82 88 93 56 72 82 95 84 75 85
100 100 97 99 98 98 91 91 92 85 75 85 65 48 25 18 33 23 55 53 50 74 82 72 75 71 67 65 83 76 69 74 83 92 94 95 86 86 74 97 67 89 87 92 88 82 59 45 70 64 60 79 84 89
100 100 97 99 99 98 98 94 92 82 86 86 75 64 32 21 17 21 52 48 46 69 74 71 67 50 43 49 53 80 66 66 67 85 94 95 82 84 100 97 93 75 70 93 77 56 66 54 55 60 62 83 74 82
100 100 98 98 98 98 99 94 93 90 93 84 86 54 32 25 26 34 48 62 55 69 92 82 60 51 47 42 42 41 46 48 66 78 96 97 93 72 94 83 93 91 80 92 82 65 65 49 63 67 74 72 75 79
100 99 99 99 98 99 97 94 93 92 88 75 91 70 58 33 32 29 43 74 74 62 90 84 54 48 39 39 45 50 51 60 79 89 95 96 84 84 93 87 100 95 98 100 98 85 95 86 73 63 90 86 85 90
100 98 99 98 98 99 96 96 93 90 66 50 96 87 74 52 50 57 84 47 64 64 87 96 58 50 38 39 47 50 57 59 74 92 95 86 64 92 100 99 91 76 78 95 96 90 87 73 60 72 88 86 90 90
100 99 98 98 98 98 96 93 93 62 40 85 94 95 60 52 53 74 85 63 55 62 89 95 92 54 46 41 50 53 51 73 79 94 85 78 69 91 99 100 82 75 75 72 72 88 82 72 89 84 72 77 78 78
100 99 99 96 97 97 96 94 65 60 88 97 94 56 63 69 52 51 67 57 57 56 67 93 89 80 55 57 70 53 66 70 83 78 78 88 89 92 100 86 83 85 84 70 79 78 79 70 70 70 77 80 83 79
99 99 97 96 95 96 94 82 89 94 95 93 88 66 59 59 76 64 55 51 54 57 94 96 99 98 61 72 68 74 74 97 84 97 91 84 91 100 91 97 95 97 98 96 88 74 68 76 72 78 84 86 89 85
100 98 96 94 94 95 94 86 93 94 91 78 60 62 94 74 61 59 43 58 79 78 93 98 96 93 78 88 96 93 96 98 98 95 92 96 100 89 85 87 91 93 95 96 95 87 88 85 86 90 91 92 94 94
98 97 98 93 91 94 80 93 92 93 80 64 70 96 69 59 50 66 79 75 91 95 99 100 96 96 83 97 100 96 100 98 98 93 94 98 100 87 80 83 82 82 86 91 97 96 97 97 96 95 92 94 96 97
98 99 95 92 95 81 86 90 91 78 77 46 46 41 34 56 80 53 94 86 93 100 98 98 95 94 94 91 99 95 100 95 98 94 95 98 91 83 88 93 87 84 87 91 92 97 96 98 98 100 99 99 100 100
100 99 99 97 83 78 93 98 85 36 35 26 28 63 68 77 58 57 60 89 100 98 97 95 97 95 92 95 100 100 100 97 91 99 94 96 88 85 96 94 92 84 88 91 93 91 94 98 95 98 100 98 99 99
99 96 96 85 90 96 99 90 40 28 21 78 64 62 77 98 98 98 97 98 96 98 98 98 99 96 98 97 100 100 93 93 96 97 96 97 97 96 95 92 95 95 93 96 96 96 96 99 100 94 95 94 99 97
94 95 87 87 95 96 71 56 26 21 36 81 76 91 99 97 99 100 99 98 97 97 98 98 98 96 99 98 98 93 91 98 93 96 97 99 95 96 96 95 95 95 96 98 98 99 97 97 98 96 90 91 95 89
97 92 77 93 97 94 43 28 24 32 60 84 92 84 98 97 100 100 100 99 96 100 97 97 100 100 100 100 98 100 100 100 96 98 97 97 96 96 96 91 91 95 97 96 95 97 98 97 95 97 91 88 95 90
61 94 96 96 74 36 27 21 30 73 90 87 98 96 98 100 100 100 99 100 96 98 100 100 100 97 94 100 100 94 100 97 98 98 98 95 94 92 91 89 88 94 94 90 90 86 96 94 87 93 97 90 97 89
96 97 96 36 26 22 25 34 57 84 99 100 97 100 99 98 99 99 100 97 97 100 100 99 96 100 100 100 98 99 99 100 99 96 92 87 86 88 88 87 90 91 87 85 81 82 93 89 90 100 96 98 98 94
89 84 37 26 20 20 42 64 55 96 100 100 99 98 97 98 91 88 83 84 89 92 98 100 100 100 98 97 98 100 100 100 99 97 88 83 76 78 82 84 84 86 85 82 83 88 97 86 90 98 100 100 98 98
91 78 32 23 21 29 68 80 71 89 100 96 97 99 99 100 96 90 95 92 95 100 100 100 97 95 95 97 98 99 100 98 98 98 95 85 79 81 81 78 82 86 85 87 88 92 96 90 88 99 100 98 99 100
36 36 24 18 28 40 81 100 95 99 100 99 100 98 100 99 100 100 100 90 100 100 100 96 97 96 82 78 88 94 94 96 95 97 97 96 79 89 84 77 80 85 91 94 95 92 95 100 94 99 97 97 100 95
32 23 22 26 42 56 84 92 92 95 96 100 98 99 100 100 100 100 99 100 100 94 95 97 93 82 87 86 81 83 85 91 96 96 92 93 91 86 88 82 84 85 89 96 96 97 99 97 98 100 95 100 97 94
19 21 27 35 66 69 82 93 78 96 78 92 100 94 98 100 100 97 100 97 93 77 76 76 72 74 73 74 81 84 89 95 96 94 92 92 92 91 89 86 86 86 85 88 91 94 96 99 98 99 95 92 97 94
23 42 76 83 77 88 93 94 98 97 97 94 91 82 86 100 99 100 93 96 93 86 82 76 76 80 84 91 94 77 75 84 89 93 94 98 97 92 92 89 84 81 82 87 90 92 94 94 100 95 96 94 99 99
53 66 72 77 94 76 82 87 95 86 82 100 89 93 96 100 100 100 93 87 98 98 82 74 78 82 97 93 84 79 76 79 85 94 88 95 98 97 95 92 90 86 82 85 89 92 94 94 94 97 97 97 100 98
69 85 60 83 89 63 84 73 84 89 96 94 97 99 100 100 98 85 89 90 94 94 87 85 88 95 94 85 87 82 78 84 92 99 90 93 98 99 98 99 97 90 88 86 91 94 94 96 97 98 96 98 100 96
74 84 97 87 90 84 90 88 85 90 94 84 98 100 98 89 95 79 90 71 71 71 71 72 72 74 78 78 80 83 86 90 95 98 98 98 97 97 97 98 97 95 95 92 96 99 99 97 96 99 99 96 98 97
94 94 77 93 96 95 94 98 99 87 91 95 89 92 87 81 67 82 73 64 62 65 68 68 69 72 76 80 83 87 90 93 96 96 93 91 91 96 97 97 97 98 99 98 100 100 100 97 100 99 98 98 96 97
96 98 87 100 100 99 96 88 87 94 92 92 85 89 90 89 72 65 63 64 68 70 72 76 78 84 84 84 85 89 95 96 99 98 100 99 95 95 96 96 96 96 95 95 97 100 100 99 100 100 97 98 96 96
98 99 98 100 89 85 96 100 100 99 94 96 94 92 90 83 76 80 81 78 78 79 83 87 87 86 84 86 87 90 94 96 100 100 100 97 97 96 95 96 96 96 96 96 95 94 94 93 93 94 97 97 97 97
100 99 97 100 100 100 100 99 95 94 96 99 100 100 99 94 74 71 71 72 77 80 82 82 81 81 84 87 91 92 93 96 97 98 98 97 97 96 95 95 95 96 96 96 96 96 96 96 97 96 97 97 97 98
98 100 97 94 100 99 99 100 100 100 100 100 99 100 97 99 100 73 68 72 78 79 77 80 78 80 83 88 92 94 99 95 96 97 97 96 96 95 96 96 96 96 96 96 96 96 96 97 98 97 97 98 98 99
100 100 100 100 100 100 99 95 100 100 99 100 100 100 100 100 93 68 67 68 75 77 77 78 80 83 86 89 92 93 93 95 95 100 100 100 100 99 98 95 95 96 98 96 96 96 96 98 98 98 97 98 98 99